Flag for Canada Weather past 2 weeks in Granby, Quebec, Canada

Now
3 °F

Frigid.


Feels Like: -4 °F
Forecast: -14 / 0 °F
Wind: 3 mph from West

Location: Frelighsburg

Current Time: Feb 1, 2015 at 7:15:44 AM

Latest Report: Feb 1, 2015 at 6:00 AM


Visibility: N/A

Pressure: 30.16 "Hg

Humidity: 89%

Dew point: 1 °F

Location of GranbyLocation

Historic Weather in Granby — Graph

°F

Granby temperature yesterday

Maximum temperature yesterday: 3 °F (at 12:00 AM)
Minimum temperature yesterday: -11 °F (at 8:00 AM)
Average temperature yesterday: -4 °F

Past Weeks' High & Low Weather Summary

 TemperatureHumidityPressure
High43 °F (Jan 18, 1:00 PM)100% (Jan 18, 11:00 PM)30.40 "Hg (Jan 18, 11:00 PM)
Low-12 °F (Jan 17, 7:00 AM)25% (Jan 29, 2:00 PM)29.27 "Hg (Jan 25, 1:00 AM)
Average13 °F74%29.97 "Hg
* Reported Jan 17 6:00 AM — Feb 1 6:00 AM, Granby, Weather by CustomWeather, © 2014

Note: Actual official high and low records may vary slightly from our data, if they occured in-between our weather recording intervals... More about our weather records

Advertising

Granby weather history for previous 24 hours

 ConditionsComfort  
Time TempWeatherWind HumidityBarometerVisibility
6:00 AM
Feb 1
3 °FFrigid.3 mph89%30.16 "HgN/A
5:00 AM3 °FFrigid.2 mph88%30.13 "HgN/A
4:00 AM3 °FFrigid.2 mph88%30.11 "HgN/A
3:00 AM2 °FFrigid.3 mph87%30.09 "HgN/A
2:00 AM2 °FFrigid.3 mph86%30.09 "HgN/A
1:00 AM0 °FFrigid.3 mph84%30.10 "HgN/A
12:00 AM0 °FFrigid.3 mph73%30.12 "HgN/A
11:00 PM
Jan 31
-3 °FFrigid.3 mph74%30.13 "HgN/A
10:00 PM-3 °FFrigid.3 mph76%30.14 "HgN/A
9:00 PM-3 °FFrigid.2 mph71%30.16 "HgN/A
8:00 PM-4 °FFrigid.2 mph72%30.18 "HgN/A
7:00 PM-4 °FFrigid.1 mph73%30.17 "HgN/A
6:00 PM-3 °FFrigid.1 mph67%30.16 "HgN/A
5:00 PM-2 °FFrigid.2 mph61%30.15 "HgN/A
4:00 PM-1 °FFrigid.5 mph58%30.15 "HgN/A
3:00 PM-1 °FFrigid.7 mph55%30.15 "HgN/A
2:00 PM-2 °FFrigid.6 mph55%30.14 "HgN/A
1:00 PM-3 °FFrigid.7 mph54%30.16 "HgN/A
12:00 PM-5 °FFrigid.6 mph60%30.16 "HgN/A
11:00 AM-6 °FFrigid.7 mph63%30.18 "HgN/A
10:00 AM-8 °FFrigid.6 mph67%30.19 "HgN/A
9:00 AM-9 °FFrigid.6 mph74%30.19 "HgN/A
8:00 AM-11 °FExtremely cold.3 mph80%30.19 "HgN/A
7:00 AM-10 °FExtremely cold.3 mph79%30.18 "HgN/A
Weather by CustomWeather, © 2014

See weather overviewHow to use our weather pages